Weather History for KFOK - March, 2014

Change the Weather History Date:

Friday, March 28, 2014

  Actual Average Record
Temperature  
Mean Temperature 44 °F -  
Max Temperature 52 °F 48 °F 62 °F (2007)
Min Temperature 37 °F 32 °F 18 °F (2001)
Degree Days  
Heating Degree Days 20    
Moisture  
Dew Point 38 °F    
Average Humidity 74    
Maximum Humidity 83    
Minimum Humidity 65    
Precipitation  
Precipitation 0.00 in - - ()
Sea Level Pressure  
Sea Level Pressure 30.14 in    
Wind  
Wind Speed 10 mph (SW)    
Max Wind Speed 16 mph    
Max Gust Speed 30 mph    
Visibility 9 miles    
Events      
Averages and records for this station are not official NWS values.
T = Trace of Precipitation, MM = Missing Value Source: NWS Daily Summary

Daily Weather History Graph

Daily Weather History Graph

Search for Another Location

Airport or City:

Trip Planner

Search our weather history database for the weather conditions in past years. The results will help you decide how hot, cold, wet, or windy it might be!

Date:

Astronomy

Mar. 28, 2014 Rise Set
Actual Time 6:40 AM EDT 7:11 PM EDT
Civil Twilight 6:13 AM EDT 7:38 PM EDT
Nautical Twilight 5:40 AM EDT 8:11 PM EDT
Astronomical Twilight 5:07 AM EDT 8:44 PM EDT
Moon 5:10 AM EDT (3/28) 5:03 PM EDT (3/28)
Length of Visible Light 13h 25m
Length of Day
12h 30m
Waning Crescent, 6% of the Moon is Illuminated
Mar 28
Waning Crescent
Mar 30
New
Apr 7
First Quarter
Apr 15
Full
Apr 22
Last Quarter

Hourly Weather History & Observations

Time (EDT) Temp. Windchill Dew Point Humidity Pressure Visibility Wind Dir Wind Speed Gust Speed Precip Events Conditions
12:53 AM 37.9 °F 32.7 °F 27.0 °F 65% 30.31 in 10.0 mi SW 6.9 mph - N/A   Clear
1:53 AM 39.0 °F 32.3 °F 28.0 °F 65% 30.28 in 10.0 mi SSW 10.4 mph - N/A   Clear
2:53 AM 39.0 °F 35.7 °F 28.9 °F 67% 30.26 in 10.0 mi South 4.6 mph - N/A   Clear
3:53 AM 39.0 °F 35.7 °F 30.0 °F 70% 30.22 in 10.0 mi South 4.6 mph - N/A   Clear
4:53 AM 41.0 °F 35.2 °F 33.1 °F 73% 30.20 in 10.0 mi South 9.2 mph - N/A   Clear
5:53 AM 43.0 °F 37.2 °F 34.0 °F 71% 30.19 in 10.0 mi SSW 10.4 mph 17.3 mph N/A   Clear
6:53 AM 44.1 °F 39.0 °F 35.1 °F 71% 30.19 in 10.0 mi SW 9.2 mph - N/A   Clear
7:53 AM 45.0 °F 40.6 °F 37.9 °F 76% 30.19 in 10.0 mi SW 8.1 mph - N/A   Mostly Cloudy
8:53 AM 46.9 °F - 39.9 °F 77% 30.17 in 10.0 mi SW 6.9 mph - N/A   Partly Cloudy
9:53 AM 48.9 °F - 39.9 °F 71% 30.16 in 10.0 mi SW 16.1 mph 21.9 mph N/A   Scattered Clouds
10:53 AM 50.0 °F - 39.9 °F 68% 30.14 in 10.0 mi SW 13.8 mph 27.6 mph N/A   Clear
11:53 AM 52.0 °F - 41.0 °F 66% 30.14 in 10.0 mi SSW 16.1 mph 27.6 mph N/A   Clear
12:53 PM 50.0 °F - 39.9 °F 68% 30.12 in 10.0 mi SSW 12.7 mph 29.9 mph N/A   Mostly Cloudy
1:53 PM 48.0 °F - 41.0 °F 77% 30.09 in 8.0 mi SSW 15.0 mph 20.7 mph 0.00 in   Overcast
2:53 PM 51.1 °F - 42.1 °F 71% 30.05 in 10.0 mi SSW 12.7 mph 26.5 mph N/A   Mostly Cloudy
3:53 PM 50.0 °F - 41.0 °F 71% 30.02 in 9.0 mi SSW 11.5 mph 26.5 mph N/A   Overcast
4:53 PM 48.0 °F - 41.0 °F 77% 30.04 in 8.0 mi SW 11.5 mph 23.0 mph 0.00 in   Overcast
5:53 PM 48.0 °F - 41.0 °F 77% 30.05 in 8.0 mi SW 11.5 mph 19.6 mph N/A   Overcast
6:53 PM 48.0 °F - 41.0 °F 77% 30.06 in 8.0 mi SW 13.8 mph 20.7 mph N/A   Overcast
7:53 PM 48.0 °F - 41.0 °F 77% 30.06 in 10.0 mi SW 13.8 mph 23.0 mph N/A   Overcast
8:53 PM 48.0 °F - 42.1 °F 80% 30.08 in 9.0 mi SW 12.7 mph 21.9 mph N/A   Mostly Cloudy
9:53 PM 46.9 °F - 42.1 °F 83% 30.09 in 8.0 mi WSW 11.5 mph 21.9 mph N/A   Overcast
10:53 PM 46.9 °F - 42.1 °F 83% 30.09 in 8.0 mi SW 11.5 mph - N/A   Mostly Cloudy
11:53 PM 46.9 °F - 42.1 °F 83% 30.09 in 8.0 mi SW 11.5 mph 19.6 mph N/A   Mostly Cloudy